Regional Weather Roundup
Issued by NWS

Home | Current Version | Previous Version | Graphics & Text | Print | Product List | Glossary On
Versions: 1 2 3 4 5 6 7 8 9 10 11 12 13 14 15 16 17 18 19 20 21 22 23 24 25 26 27 28 29 30 31 32 33 34 35 36 37 38 39 40 41 42 43 44 45 46 47 48 49 50
213
ASUS43 KLMK 130202
RWRKY
KENTUCKY REGIONAL WEATHER ROUNDUP
NATIONAL WEATHER SERVICE LOUISVILLE KY
900 PM EST FRI FEB 12 2016

NOTE "FAIR" INDICATES FEW OR NO CLOUDS BELOW 12,000 FEET
WITH NO SIGNIFICANT WEATHER AND/OR OBSTRUCTIONS TO VISIBILITY.

KYZ001>023-026-027-061>063-070>075-130300-
WESTERN AND SOUTH CENTRAL KENTUCKY

CITY           SKY/WX    TMP DP  RH WIND       PRES   REMARKS
PADUCAH        CLEAR     30  20  66 N9        30.41R WCI  22
HENDERSON      PTCLDY    27  14  59 NW14G20   30.40R WCI  15
OWENSBORO      CLOUDY    28  17  63 NW17      30.38R WCI  16
HOPKINSVILLE   PTCLDY    32  21  64 NW12      30.36R WCI  23
BOWLING GREEN  CLOUDY    32  20  61 NW10      30.34R WCI  24
GLASGOW        NOT AVBL
$$

KYZ024-025-028>034-038-045-046-053-130300-
NORTH CENTRAL KENTUCKY

CITY           SKY/WX    TMP DP  RH WIND       PRES   REMARKS
LOUISVILLE/SDF LGT SNOW  28  18  66 NW18G25   30.30R WCI  15
LOUISVILLE/LOU PTCLDY    28  14  55 NW15G24   30.30R WCI  16
FORT KNOX      CLOUDY    27  12  54 W12G23    30.28R WCI  17
$$

KYZ035>037-039>044-047>052-055>060-089>105-130300-
NORTHEAST KENTUCKY

CITY           SKY/WX    TMP DP  RH WIND       PRES   REMARKS
LEXINGTON      FLURRIES  26  14  60 W12G23    30.22R WCI  16
COVINGTON      MOCLDY    22  11  62 W16       30.22R WCI   8
FRANKFORT      CLOUDY    28  14  55 W12G24    30.23R WCI  18
$$

KYZ054-064>069-076>088-106>120-130300-
SOUTHEAST KENTUCKY

CITY           SKY/WX    TMP DP  RH WIND       PRES   REMARKS
JACKSON        FLURRIES  28  17  63 W13G26    30.14R WCI  17
LONDON         FLURRIES  29  22  75 W12       30.19S WCI  19
SOMERSET       NOT AVBL
MIDDLESBORO    FLURRIES  32  24  73 NW15G22   30.20R WCI  21
MONTICELLO     FLURRIES  30  24  78 NW16G24   30.27R WCI  19
$$





USA.gov is the U.S. government's official web portal to all federal, state and local government web resources and services.